Change the Weather History Date:

Thursday, December 19, 2013

  Actual Average Record
Temperature  
Mean Temperature 22 °F -  
Max Temperature 26 °F 26 °F 45 °F (1979)
Min Temperature 17 °F 10 °F -32 °F (1983)
Degree Days  
Heating Degree Days 44    
Moisture  
Dew Point 14 °F    
Average Humidity 80    
Maximum Humidity 93    
Minimum Humidity 74    
Precipitation  
Precipitation 0.00 in - - ()
Sea Level Pressure  
Sea Level Pressure 29.91 in    
Wind  
Wind Speed 9 mph (North)    
Max Wind Speed 17 mph    
Max Gust Speed 23 mph    
Visibility 10 miles    
Events      
Averages and records for this station are not official NWS values.
T = Trace of Precipitation, MM = Missing Value Source: NWS Daily Summary

Daily Weather History Graph

Daily Weather History Graph

Search for Another Location

Airport or City:

Trip Planner

Search our weather history database for the weather conditions in past years. The results will help you decide how hot, cold, wet, or windy it might be!

Date:

Astronomy

Dec. 19, 2013 Rise Set
Actual Time 7:44 AM CST 4:36 PM CST
Civil Twilight 7:10 AM CST 5:09 PM CST
Nautical Twilight 6:34 AM CST 5:46 PM CST
Astronomical Twilight 5:58 AM CST 6:21 PM CST
Moon 7:07 PM CST (12/19) 8:59 AM CST (12/19)
Length of Visible Light 9h 58m
Length of Day
8h 52m
Waning Gibbous, 95% of the Moon is Illuminated
Dec 19
Waning Gibbous
Dec 25
Last Quarter
Jan 1
New
Jan 7
First Quarter
Jan 15
Full

Hourly Weather History & Observations

Time (CST) Temp. Windchill Dew Point Humidity Pressure Visibility Wind Dir Wind Speed Gust Speed Precip Events Conditions
12:01 AM 21.2 °F 14.9 °F 19.4 °F 93% 29.77 in 10.0 mi West 4.6 mph - N/A   Clear
12:21 AM 21.2 °F - 19.4 °F 93% 29.77 in 7.0 mi West 1.2 mph - N/A   Clear
12:41 AM 21.2 °F 14.9 °F 19.4 °F 93% 29.79 in 7.0 mi West 4.6 mph - N/A   Clear
1:01 AM 23.0 °F 13.9 °F 21.2 °F 93% 29.80 in 10.0 mi West 8.1 mph - N/A   Clear
1:21 AM 26.6 °F 19.1 °F 21.2 °F 80% 29.80 in 10.0 mi WNW 6.9 mph - N/A   Clear
1:41 AM 21.2 °F 11.7 °F 17.6 °F 86% 29.80 in 10.0 mi NW 8.1 mph - N/A   Clear
2:01 AM 23.0 °F 15.8 °F 19.4 °F 86% 29.81 in 10.0 mi NW 5.8 mph - N/A   Clear
2:21 AM 21.2 °F 16.4 °F 17.6 °F 86% 29.83 in 10.0 mi NW 3.5 mph - N/A   Clear
2:41 AM 21.2 °F - 17.6 °F 86% 29.85 in 10.0 mi NW 2.3 mph - N/A   Clear
3:01 AM 21.2 °F - 17.6 °F 86% 29.85 in 10.0 mi NNW 2.3 mph - N/A   Clear
3:21 AM 19.4 °F - 17.6 °F 93% 29.86 in 10.0 mi NW 1.2 mph - N/A   Clear
3:41 AM 19.4 °F 14.3 °F 17.6 °F 93% 29.86 in 7.0 mi NNW 3.5 mph - N/A   Clear
4:01 AM 17.6 °F 10.7 °F 15.8 °F 93% 29.86 in 10.0 mi NNW 4.6 mph - N/A   Clear
4:21 AM 19.4 °F - 17.6 °F 93% 29.87 in 10.0 mi North 2.3 mph - N/A   Clear
4:41 AM 17.6 °F 9.3 °F 15.8 °F 93% 29.87 in 10.0 mi NNW 5.8 mph - N/A   Clear
5:01 AM 17.6 °F 9.3 °F 15.8 °F 93% 29.87 in 10.0 mi North 5.8 mph - N/A   Clear
5:21 AM 19.4 °F 12.8 °F 15.8 °F 86% 29.87 in 10.0 mi NNW 4.6 mph - N/A   Clear
5:41 AM 19.4 °F 11.5 °F 17.6 °F 93% 29.89 in 10.0 mi NNW 5.8 mph - N/A   Clear
6:01 AM 19.4 °F 8.6 °F 17.6 °F 93% 29.89 in 10.0 mi North 9.2 mph - N/A   Clear
6:21 AM 21.2 °F 11.7 °F 17.6 °F 86% 29.91 in 10.0 mi North 8.1 mph - N/A   Clear
6:41 AM 21.2 °F 9.5 °F 15.8 °F 80% 29.92 in 10.0 mi North 11.5 mph - N/A   Clear
7:01 AM 21.2 °F 8.9 °F 15.8 °F 80% 29.92 in 10.0 mi North 12.7 mph 16.1 mph N/A   Clear
7:21 AM 19.4 °F 7.9 °F 14.0 °F 80% 29.93 in 10.0 mi NNE 10.4 mph 17.3 mph N/A   Clear
7:41 AM 19.4 °F 7.2 °F 14.0 °F 80% 29.95 in 10.0 mi NNE 11.5 mph - N/A   Clear
8:01 AM 19.4 °F 7.9 °F 14.0 °F 80% 29.95 in 10.0 mi NNE 10.4 mph - N/A   Clear
8:21 AM 19.4 °F 5.0 °F 12.2 °F 74% 29.95 in 10.0 mi NNE 16.1 mph 20.7 mph N/A   Clear
8:41 AM 17.6 °F 3.2 °F 12.2 °F 79% 29.96 in 10.0 mi NE 15.0 mph - N/A   Clear
9:01 AM 17.6 °F 4.3 °F 12.2 °F 79% 29.98 in 10.0 mi NNE 12.7 mph - N/A   Clear
9:21 AM 17.6 °F 6.4 °F 12.2 °F 79% 29.98 in 10.0 mi NNE 9.2 mph - N/A   Clear
9:41 AM 17.6 °F 4.3 °F 12.2 °F 79% 29.98 in 10.0 mi NNE 12.7 mph - N/A   Clear
10:01 AM 17.6 °F 5.7 °F 12.2 °F 79% 29.98 in 10.0 mi NNE 10.4 mph - N/A   Clear
10:21 AM 17.6 °F 3.7 °F 12.2 °F 79% 29.98 in 10.0 mi NNE 13.8 mph 19.6 mph N/A   Clear
10:41 AM 17.6 °F 3.2 °F 12.2 °F 79% 29.98 in 10.0 mi NNE 15.0 mph 20.7 mph N/A   Clear
11:01 AM 17.6 °F 2.2 °F 12.2 °F 79% 29.98 in 10.0 mi NNE 17.3 mph 21.9 mph N/A   Clear
11:21 AM 19.4 °F 5.5 °F 12.2 °F 74% 29.97 in - NNE 15.0 mph 20.7 mph N/A   Clear
11:41 AM 19.4 °F 5.0 °F 14.0 °F 80% 29.96 in - NE 16.1 mph 20.7 mph N/A   Clear
12:01 PM 21.2 °F 7.3 °F 15.8 °F 80% 29.95 in - NNE 16.1 mph 21.9 mph N/A   Clear
12:21 PM 19.4 °F 4.5 °F 15.8 °F 86% 29.93 in 10.0 mi NNE 17.3 mph 21.9 mph N/A   Clear
12:41 PM 19.4 °F 5.0 °F 14.0 °F 80% 29.94 in 10.0 mi NNE 16.1 mph 20.7 mph N/A   Clear
1:01 PM 19.4 °F 6.6 °F 14.0 °F 80% 29.93 in 10.0 mi NNE 12.7 mph 18.4 mph N/A   Scattered Clouds
1:21 PM 19.4 °F 5.0 °F 12.2 °F 74% 29.91 in 10.0 mi NNE 16.1 mph - N/A   Scattered Clouds
1:41 PM 19.4 °F 6.6 °F 12.2 °F 74% 29.91 in 10.0 mi NNE 12.7 mph 17.3 mph N/A   Scattered Clouds
2:01 PM 19.4 °F 5.5 °F 12.2 °F 74% 29.92 in 10.0 mi NNE 15.0 mph - N/A   Clear
2:21 PM 19.4 °F 6.0 °F 12.2 °F 74% 29.92 in 10.0 mi North 13.8 mph 17.3 mph N/A   Clear
2:41 PM 19.4 °F 6.6 °F 12.2 °F 74% 29.92 in 10.0 mi NNE 12.7 mph - N/A   Clear
3:01 PM 17.6 °F 3.2 °F 12.2 °F 79% 29.92 in 10.0 mi NNE 15.0 mph 19.6 mph N/A   Clear
3:21 PM 19.4 °F 6.0 °F 12.2 °F 74% 29.92 in 10.0 mi NNE 13.8 mph 19.6 mph N/A   Clear
3:41 PM 19.4 °F 7.2 °F 12.2 °F 74% 29.93 in 10.0 mi NE 11.5 mph - N/A   Clear
4:01 PM 19.4 °F 7.2 °F 12.2 °F 74% 29.94 in 10.0 mi NNE 11.5 mph 20.7 mph N/A   Clear
4:21 PM 19.4 °F 6.0 °F 12.2 °F 74% 29.93 in - NE 13.8 mph - N/A   Clear
4:41 PM 19.4 °F 7.2 °F 12.2 °F 74% 29.94 in 10.0 mi NE 11.5 mph 17.3 mph N/A   Clear
5:01 PM 19.4 °F 7.2 °F 12.2 °F 74% 29.94 in - NE 11.5 mph 18.4 mph N/A   Clear
5:21 PM 19.4 °F 6.0 °F 12.2 °F 74% 29.94 in 10.0 mi NNE 13.8 mph 17.3 mph N/A   Clear
5:41 PM 19.4 °F 6.0 °F 12.2 °F 74% 29.93 in 10.0 mi NE 13.8 mph 18.4 mph N/A   Clear
6:01 PM 19.4 °F 6.6 °F 12.2 °F 74% 29.93 in 10.0 mi NNE 12.7 mph - N/A   Clear
6:21 PM 19.4 °F 6.6 °F 12.2 °F 74% 29.93 in 10.0 mi NNE 12.7 mph - N/A   Clear
6:41 PM 19.4 °F 7.2 °F 12.2 °F 74% 29.93 in 10.0 mi NE 11.5 mph - N/A   Clear
7:01 PM 19.4 °F 7.2 °F 12.2 °F 74% 29.93 in 10.0 mi NNE 11.5 mph - N/A   Scattered Clouds
7:21 PM 19.4 °F 8.6 °F 12.2 °F 74% 29.94 in 10.0 mi NNE 9.2 mph - N/A   Overcast
7:41 PM 19.4 °F 7.2 °F 12.2 °F 74% 29.93 in 10.0 mi NNE 11.5 mph 18.4 mph N/A   Overcast
8:01 PM 19.4 °F 7.2 °F 12.2 °F 74% 29.93 in 10.0 mi NNE 11.5 mph - N/A   Overcast
8:21 PM 19.4 °F 6.6 °F 12.2 °F 74% 29.94 in 10.0 mi North 12.7 mph - N/A   Overcast
8:41 PM 19.4 °F 6.6 °F 12.2 °F 74% 29.93 in 10.0 mi NNE 12.7 mph - N/A   Overcast
9:01 PM 19.4 °F 6.6 °F 12.2 °F 74% 29.94 in 10.0 mi North 12.7 mph 18.4 mph N/A   Overcast
9:21 PM 19.4 °F 6.0 °F 12.2 °F 74% 29.94 in 10.0 mi North 13.8 mph 17.3 mph N/A   Overcast
9:41 PM 19.4 °F 6.6 °F 12.2 °F 74% 29.92 in 10.0 mi NNE 12.7 mph - N/A   Overcast
10:01 PM 19.4 °F 5.0 °F 12.2 °F 74% 29.93 in 10.0 mi NNE 16.1 mph 23.0 mph N/A   Overcast
10:21 PM 19.4 °F 5.5 °F 12.2 °F 74% 29.92 in 10.0 mi NNE 15.0 mph 18.4 mph N/A   Overcast
10:41 PM 19.4 °F 5.5 °F 12.2 °F 74% 29.93 in 10.0 mi NNE 15.0 mph 18.4 mph N/A   Overcast
11:01 PM 19.4 °F 6.6 °F 12.2 °F 74% 29.93 in 10.0 mi NNE 12.7 mph 17.3 mph N/A   Overcast
11:21 PM 19.4 °F 7.2 °F 14.0 °F 80% 29.94 in 10.0 mi NNE 11.5 mph - N/A   Overcast
11:41 PM 19.4 °F 7.9 °F 14.0 °F 80% 29.94 in 10.0 mi NE 10.4 mph - N/A   Overcast